Weather in Novolakskoe

Russia / Republic of Dagestan     43°07′13″N   46°28′57″E
temp.,
°C
wind,
m/s
gust,
m/s
humid.,
%
clouds,
%
prec.,
mm/h
press.,
hPa
HPBL,
m
25 may, wed
wed2500:00+7sw1191100 0.0 101419
03:00+7nw1399100 2.3 1015259
06:00+5wsw2697100 9.8 1018508
09:00+5wsw3695100 13.7 1020486
12:00+10wnw3468100 0.3 10191096
15:00+11nw337296 1.0 10191032
18:00+9wnw238969 1.4 1021399
21:00+6ssw339241 1.7 102441
26 may, thu
thu2600:00+6ssw338710 0.0 102335
03:00+5s32855 0.0 102329
06:00+8s117813 0.0 102252
09:00+12nne326154 0.1 10211259
12:00+10ene1282100 0.3 1022360
15:00+13nne326566 0.5 10211156
18:00+11e118175 0.1 102159
21:00+8s32844 0.1 102223
27 may, fri
fri2700:00+8s32821 0.0 102134
03:00+8s327960 0.0 102033
06:00+11s227179 0.0 101948
09:00+16n2252100 0.0 1019887
12:00+18n33470 0.0 10181327
15:00+18n32534 0.0 10181258
18:00+16n12714 0.0 1019204
21:00+11s32830 0.0 102126
28 may, sat
sat2800:00+11s22806 0.0 102119
03:00+10sse22830 0.0 102017
06:00+13se12790 0.0 1019103
09:00+19ne23580 0.0 1017893
12:00+22nne33493 0.0 10151244
15:00+22nne32530 0.0 1014986
18:00+18n11750 0.0 1015184
21:00+14s22860 0.0 101613
29 may, sun
sun2900:00+14s22830 0.0 101516
03:00+13s22750 0.0 101521
06:00+16s11600 0.0 101543
09:00+21n21540 0.0 1014636
12:00+22n32585 0.0 10141045
15:00+22n32625 0.0 1014950
18:00+19nnw2281100 0.3 1015122
21:00+16ssw2286100 0.3 101832